www.pogodaiklimat.ru

Погода и климат >> Архив погоды >> Россия >> Чукотка >> Остров Врангеля


ПОГОДА на Острове Врангеля

АРХИВ ПОГОДЫ на Острове Врангеля

Время (UTC), дата Ветер
(напр.,м/с)
 
Видим.   Явления Облачность Т
(С)
Тd
(С)
f
(%)
Тe
(С)
Тes
(С)
Комфортность P
(гПа)
Po
(гПа)
Тmin
(С)
Tmax
(С)
R
(мм)
R24
(мм)
S
(см)
12 13.02 СВ 3
{4}
4000 м слабый снег 10/6 600 м
[Sc As op]
-15.0 -17.0 85 -22 -22 1009.8 1007.0
15 13.02 СВ 4
{6}
20 км {снег} 10/5 600 м
[Sc Ac und]
-14.2 -16.0 86 -22 -22 1010.2 1007.4
18 13.02 СВ 3
{6}
20 км {снег} 6/4 600 м
[Sc Ac trans]
-14.7 -16.7 85 -21 -21 1010.2 1007.4 -15.1 0.8 93
21 13.02 СВ 7
{9}
20 км позёмок {метель} 10/10 300 м
[Sc]
-10.9 -12.5 88 -20 -20 1008.4 1005.6
00 14.02 СВ 8-10
{11}
10 км позёмок {метель} 10/10 200 м
[St]
-8.8 -10.2 90 -18 -18 1005.8 1003.1
03 14.02 В 6-10
{10}
10 км позёмок {метель} 10/10 200 м
[St]
-8.8 -10.1 90 -17 -17 1004.0 1001.3
06 14.02 В 8-11
{12}
20 км позёмок {метель} 10/10 600 м
[Sc]
-8.6 -10.0 90 -18 -18 1002.4 999.7 -7.3
09 14.02 СВ 10-13
{14}
20 км сильный позёмок {метель} 10/10 600 м
[Sc]
-12.6 -14.3 87 -24 -24 998.7 996.0
12 14.02 СВ 12-16
{18}
20 км сильный позёмок {метель} 10/10 600 м
[Sc]
-12.8 -14.5 87 -25 -25 995.9 993.1
15 14.02 СВ 11-15
{16}
20 км сильный позёмок {метель} 10/10 600 м
[Sc]
-10.7 -12.2 89 -22 -22 992.8 990.1
18 14.02 ЮВ 5
{15}
20 км {метель} 10/10 600 м
[Sc]
-6.2 -7.3 92 -14 -14 993.4 990.7 -13.2 93
21 14.02 Ю 3
{7}
20 км 10/10 600 м
[Sc]
-9.7 -11.2 89 -16 -16 995.8 993.1
00 15.02 Ю 2
{6}
20 км 9/8 600 м
[Sc Ac trans]
-11.4 -13.0 88 -16 -16 999.5 996.7
03 15.02 СВ 5
{7}
20 км 8/3 600 м
[Sc Ac lent]
-12.9 -14.6 87 -21 -21 1001.7 998.9
06 15.02 СВ 4
{7}
20 км 6/3 600 м
[Sc Ac lent]
-12.6 -14.4 86 -20 -20 1003.7 1001.0 -6.2
09 15.02 С 3
{6}
20 км 3/0
[Ac trans]
-14.5 -16.3 86 -21 -21 1005.4 1002.6
12 15.02 СВ 4
{5}
20 км 3/0
[Ac trans]
-13.4 -15.1 87 -21 -21 1007.0 1004.2
15 15.02 СЗ 1
{5}
20 км 3/0
[Ac trans]
-16.0 -17.9 85 -19 -19 1008.4 1005.6
18 15.02 С 1
{3}
20 км ясно -16.0 -17.9 85 -19 -19 1010.2 1007.4 -17.3 93
21 15.02 штиль 0
{2}
20 км 1/0
[Ci fib]
-18.0 -20.2 83 -18 -18 1012.9 1010.0 -18.3
00 16.02 СВ 1
{3}
20 км 3/0
[Ci fib]
-15.3 -17.0 87 -18 -17 1015.4 1012.6
03 16.02 С 2
{3}
20 км 3/0
[Ci fib]
-15.4 -17.4 85 -20 -20 1016.4 1013.6
06 16.02 В 3
{6}
20 км 8/0
[Ac trans Ci fib]
-14.5 -16.6 84 -21 -21 1017.7 1014.9 -8.2
09 16.02 С 5
{7}
20 км 9/0
[Ac trans Ci fib]
-8.9 -10.7 87 -17 -17 1018.4 1015.6
12 16.02 СВ 5
{8}
20 км 9/4 600 м
[Sc Ac trans Ci fib]
-9.5 -10.8 90 -17 -17 1018.6 1015.8
15 16.02 СВ 7
{11}
20 км позёмок {метель} 10/6 600 м
[Sc Ac und]
-9.4 -10.8 90 -19 -19 1017.9 1015.1
18 16.02 СВ 9-11
{12}
20 км позёмок {метель} 10/8 600 м
[Sc Ac und]
-6.2 -7.3 92 -16 -16 1016.6 1013.9 -17.2 93
21 16.02 В 7
{13}
20 км позёмок {метель} 10/10 600 м
[Sc]
-6.9 -8.1 91 -16 -16 1016.8 1014.1
00 17.02 СВ 9-11
{11}
20 км позёмок {метель} 10/10 600 м
[Sc]
-6.5 -7.7 91 -16 -16 1016.0 1013.3
03 17.02 В 7
{11}
20 км позёмок {метель} 10/10 200 м
[Sc]
-5.4 -6.5 92 -14 -14 1015.0 1012.3
06 17.02 В 7
{11}
20 км позёмок {метель} 10/10 300 м
[Sc]
-3.8 -4.7 93 -12 -12 1014.0 1011.3 -3.8
09 17.02 В 7
{10}
4000 м слабый снег {метель} 10/8 300 м
[Sc As op]
-2.4 -3.1 95 -10 -10 1013.8 1011.1
12 17.02 В 7
{10}
4000 м слабый снег {метель} 10/8 300 м
[Sc As op]
-2.3 -3.0 95 -10 -10 1012.8 1010.1
15 17.02 В 5
{9}
10 км снежные кристаллы {метель} 10/8 300 м
[Sc As op]
-2.0 -2.7 95 -9 -9 1012.2 1009.5
18 17.02 Ю 3
{7}
20 км {снег, метель} 10/8 300 м
[Sc Ac und]
-1.7 -2.4 95 -7 -7 1013.2 1010.5 -3.8 0.8 92
21 17.02 ЮЗ 1
{6}
10 км 10/10 200 м
[St]
-4.3 -5.1 94 -7 -7 1015.8 1013.1 -5.0
00 18.02 В 2
{3}
10 км 10/10 200 м
[St]
-6.8 -7.8 93 -11 -11 1017.8 1015.1
03 18.02 С 1
{2}
20 км 9/0
[Ac trans]
-7.5 -8.5 93 -10 -10 1017.5 1014.8
06 18.02 СВ 2
{6}
20 км 10/0
[As op]
-4.1 -4.9 94 -8 -8 1017.7 1015.0 -1.7
09 18.02 СВ 5
{7}
20 км {снег} 10/0
[As op]
-3.7 -4.6 93 -11 -11 1016.5 1013.8
12 18.02 В 8-10
{12}
20 км позёмок {снег, метель} 10/0
[As op]
-1.9 -3.1 91 -10 -10 1011.7 1009.0
15 18.02 В 11-14
{14}
20 км позёмок {метель} 10/0
[As op]
-3.1 -4.0 93 -13 -13 1007.2 1004.5
18 18.02 В 10-13
{14}
20 км позёмок {метель} 10/0
[As op]
-2.8 -3.5 95 -12 -12 1003.0 1000.4 -4.1 0.0 92
21 18.02 В 11-13
{13}
4000 м слабый снег {метель} 10/0 300 м
[As op]
-2.8 -3.5 95 -12 -12 999.5 996.8
00 19.02 В 9-12
{14}
2000 м снег {метель} 10/0 300 м
[As op]
-2.6 -3.3 95 -11 -11 996.7 994.0
03 19.02 В 7
{12}
2000 м снег {метель} 10/0 300 м
[As op]
-2.0 -2.6 96 -10 -10 994.9 992.2
06 19.02 ЮВ 2
{8}
2000 м снег {метель} 10/0
[As op]
-1.7 -2.2 96 -6 -6 995.3 992.6 -1.4 5
09 19.02 ЮЗ 3
{8}
20 км {снег} 6/4 600 м
[Sc Ac trans]
-11.1 -12.5 89 -17 -17 1000.5 997.8
12 19.02 З 2
{5}
20 км {снег} 3/0
[Ac trans]
-12.9 -14.4 88 -18 -18 1004.6 1001.8
15 19.02 СВ 2
{3}
20 км ясно -15.0 -16.6 88 -20 -20 1005.1 1002.3
18 19.02 СВ 4
{6}
20 км 4/0
[Ac trans]
-9.2 -10.4 91 -16 -16 1004.0 1001.3 -15.6 0.4 96
21 19.02 СВ 5
{7}
4000 м слабый снег 10/8 300 м
[Sc As op]
-5.8 -6.9 92 -13 -13 999.6 996.9
00 20.02 В 6
{9}
2000 м снег {метель} 10/0 300 м
[As op]
-2.5 -3.2 95 -10 -10 992.7 990.1
03 20.02 ЮВ 5
{8}
2000 м снег 10/0 300 м
[As op]
-1.1 -1.8 95 -8 -8 988.4 985.8
06 20.02 ЮВ 1
{6}
20 км {снег} [диам. гололёда 2 мм] 10/8 300 м
[Sc Ac und]
-2.1 -2.8 95 -4 -4 988.1 985.5 -0.9 3
09 20.02 В 2
{3}
20 км {ливн. осадки} 10/8 300 м
[Sc Ac und]
-1.5 -2.1 96 -6 -6 986.7 984.1

 

Местоположение метеостанции Остров Врангеля (Чукотка, Россия): широта 70.98 долгота -178.00 высота над уровнем моря 21 м.

В архиве по умолчанию представлена погода на Острове Врангеля за последнюю неделю. Архивные данные за месяц целиком и за предыдущие месяцы, начиная с января 2011 года, Вы можете получить, выбрав интересующий диапазон дат из раскрывающегося списка и нажав кнопку "Ввод!".

Внимание! Время в таблицах - всемирное. Для получения местного времени необходимо прибавить поправку, которая на Острове Врангеля равна 12 ч.

Смотрите также архив погоды в соседних городах и на ближайших метеорологических станциях:

Погода на Мысе Шмидта (Чукотка, Россия) (238 км)
Погода на Мысе Биллингс (Чукотка, Россия) (265 км)
Погода в Паляваам-Глубокой (Чукотка, Россия) (364 км)
Погода на Мысе Ванкарем (Чукотка, Россия) (369 км)
Погода в Комсомольской (Чукотка, Россия) (404 км)
Погода в Майской (Чукотка, Россия) (423 км)
Погода в Валькаркае (Чукотка, Россия) (423 км)
Погода в 21 км (Чукотка, Россия) (444 км)
Погода в Певеке (Чукотка, Россия) (463 км)
Погода в Чауне (Чукотка, Россия) (489 км)

Пояснения к столбцам:

Ветер - указаны скорость ветра в м/с - средняя за 10 мин, порывы в срок и между сроками (в фигурных скобках) и направление, откуда дует ветер: С - северный, СВ - северо-восточный, В - восточный, ЮВ - юго-восточный, Ю - южный, ЮЗ - юго-западный, З - западный, СЗ - северо-западный.
Видимость - горизонтальная дальность видимости в метрах или километрах. При видимости от 1 до 10 км при отсутствии осадков обычно наблюдается дымка, при ухудшении видимости до 1 км и менее - туман. В сухую погоду видимость может ухудшаться дымом, пылью или мглою.
Явления - указаны атмосферные явления, наблюдавшиеся в срок или в последний час перед сроком; фигурными скобками обозначены явления, наблюдавшиеся между сроками (за 1-3 часа до срока); квадратными скобками обозначены град или гололедные отложения с указанием их диаметра в мм.
Облачность - указаны через наклонную черту общая и нижняя облачность в баллах и высота нижней границы облаков в метрах; квадратными скобками обозначены формы облаков: Ci - перистые, Cs - перисто-слоистые, Cc - перисто-кучевые, Ac - высококучевые, As - высокослоистые, Sc - слоисто-кучевые, Ns - слоисто-дождевые, Cu - кучевые, Cb - кучево-дождевые. Подробнее классификацию облаков см. в Атласе облаков (PDF).
T - Температура воздуха - температура, измеренная на высоте 2 м над землей.
Td - Температура точки росы - температура, при понижении до которой содержащийся в воздухе водяной пар достигнет насыщения.
f - Относительная влажность воздуха - влажноcть воздуха, измеренная на высоте 2 м над землей.
Te - Эффективная температура - температура, которую ощущает одетый по сезону человек в тени. Характеристика душности погоды. При расчете учитывается влияние влажности воздуха и скорости ветра на теплоощущения человека.
Tes - Эффективная температура на солнце - температура, которую ощущает человек, с поправкой на солнечный нагрев. Характеристика знойности погоды. Зависит от высоты солнца над горизонтом, облачности и скорости ветра. Ночью, в пасмурную погоду, а также при ветре 12 м/с и более поправка равна нулю.
P - Атмосферное давление - приведенное к уровню моря атмосферное давление.
Po - Атмосферное давление - измеренное на уровне метеостанции атмосферное давление.
Tmin - Минимальная температура - минимум температуры воздуха на высоте 2 м над землей.
Tmax - Максимальная температура - максимум температуры воздуха на высоте 2 м над землей.
R - Количество осадков - Количество выпавших осадков за период времени, мм. При наведении курсора мыши на число - период времени, за который выпало указанное количество осадков.
R24 - Количество осадков - Количество выпавших осадков за 24 часа, мм.
S - Снежный покров - Высота снежного покрова, см. При наведении курсора мыши на число - состояние снежного покрова и степень покрытия местности в баллах.